Wetterdaten: Donnerstag, 25.12.2014
Datum Zeit Temp. A. Feuchte A. Luftdruck Regen Wind Richtung Richtung Sonnenschein ET UV Solar Taupunkt Windchill Windben Empfang
25.12.2014 00:00 5,9 C 52 % 1020,7 hPa 0,0 l/m 2,9 km/h (1 Bft) NO 50 0 min 0,000 mm 0,0 UV-I 0 W/m -3,2 C 5,9 C 4,0 km/h (1 Bft) 0,00 %
25.12.2014 01:00 6,5 C 49 % 1020,3 hPa 0,0 l/m 0,6 km/h (0 Bft) O 90 0 min 0,000 mm 0,0 UV-I 0 W/m -3,4 C 6,5 C 4,0 km/h (1 Bft) 0,00 %
25.12.2014 02:00 7,0 C 49 % 1019,8 hPa 0,0 l/m 6,9 km/h (2 Bft) S-SW 210 0 min 0,000 mm 0,0 UV-I 0 W/m -3,0 C 6,6 C 11,9 km/h (2 Bft) 0,00 %
25.12.2014 03:00 6,3 C 58 % 1019,9 hPa 0,0 l/m 0,3 km/h (0 Bft) SW 220 0 min 0,000 mm 0,0 UV-I 0 W/m -1,3 C 6,3 C 4,0 km/h (1 Bft) 0,00 %
25.12.2014 04:00 7,3 C 59 % 1019,4 hPa 0,0 l/m 9,0 km/h (2 Bft) W-NW 300 0 min 0,000 mm 0,0 UV-I 0 W/m -0,2 C 5,3 C 19,8 km/h (3 Bft) 0,00 %
25.12.2014 05:00 7,3 C 61 % 1019,1 hPa 0,0 l/m 4,3 km/h (1 Bft) W-NW 300 0 min 0,000 mm 0,0 UV-I 0 W/m 0,3 C 7,3 C 7,9 km/h (2 Bft) 0,00 %
25.12.2014 06:00 6,2 C 73 % 1019,3 hPa 0,0 l/m 4,7 km/h (1 Bft) SW 230 0 min 0,000 mm 0,0 UV-I 0 W/m 1,7 C 6,2 C 7,9 km/h (2 Bft) 0,00 %
25.12.2014 07:00 5,8 C 75 % 1020,0 hPa 0,3 l/m 0,6 km/h (0 Bft) SW 220 0 min 0,000 mm 0,0 UV-I 0 W/m 1,7 C 5,8 C 4,0 km/h (1 Bft) 0,00 %
25.12.2014 08:00 6,1 C 73 % 1019,9 hPa 0,0 l/m 4,7 km/h (1 Bft) SW 220 0 min 0,000 mm 0,0 UV-I 0 W/m 1,6 C 6,1 C 7,9 km/h (2 Bft) 0,00 %
25.12.2014 09:00 6,4 C 71 % 1019,9 hPa 0,0 l/m 6,9 km/h (2 Bft) SW 220 0 min 0,000 mm 1,0 UV-I 40 W/m 1,5 C 6,0 C 11,9 km/h (2 Bft) 0,00 %
25.12.2014 10:00 5,3 C 75 % 1022,1 hPa 0,3 l/m 0,6 km/h (0 Bft) O 90 0 min 0,000 mm 0,0 UV-I 19 W/m 1,2 C 5,3 C 4,0 km/h (1 Bft) 0,00 %
25.12.2014 11:00 4,3 C 81 % 1023,0 hPa 0,0 l/m 3,2 km/h (1 Bft) SW 220 0 min 0,000 mm 1,0 UV-I 52 W/m 1,3 C 4,3 C 7,9 km/h (2 Bft) 0,00 %
25.12.2014 12:00 4,0 C 72 % 1023,1 hPa 0,0 l/m 2,1 km/h (1 Bft) NW 310 0 min 0,000 mm 1,0 UV-I 59 W/m -0,6 C 4,0 C 4,0 km/h (1 Bft) 0,00 %
25.12.2014 13:00 4,1 C 73 % 1022,7 hPa 0,0 l/m 1,4 km/h (1 Bft) W-SW 240 0 min 0,000 mm 1,0 UV-I 45 W/m -0,3 C 4,1 C 4,0 km/h (1 Bft) 0,00 %
25.12.2014 14:00 4,4 C 68 % 1022,7 hPa 0,0 l/m 0,0 km/h (0 Bft) S 180 0 min 0,000 mm 1,0 UV-I 43 W/m -1,0 C 4,4 C 0,0 km/h (0 Bft) 0,00 %
25.12.2014 15:00 3,7 C 70 % 1023,1 hPa 0,0 l/m 1,8 km/h (1 Bft) N-NW 340 0 min 0,000 mm 0,0 UV-I 31 W/m -1,3 C 3,7 C 4,0 km/h (1 Bft) 0,00 %
25.12.2014 16:00 3,4 C 73 % 1023,9 hPa 0,0 l/m 1,8 km/h (1 Bft) NO 40 0 min 0,000 mm 0,0 UV-I 0 W/m -1,0 C 3,4 C 4,0 km/h (1 Bft) 0,00 %
25.12.2014 17:00 2,9 C 72 % 1024,3 hPa 0,0 l/m 0,3 km/h (0 Bft) SW 220 0 min 0,000 mm 0,0 UV-I 0 W/m -1,6 C 2,9 C 4,0 km/h (1 Bft) 0,00 %
25.12.2014 18:00 3,0 C 71 % 1024,7 hPa 0,0 l/m 0,0 km/h (0 Bft) S 180 0 min 0,000 mm 0,0 UV-I 0 W/m -1,7 C 3,0 C 0,0 km/h (0 Bft) 0,00 %
25.12.2014 19:00 3,1 C 70 % 1025,0 hPa 0,0 l/m 4,3 km/h (1 Bft) SW 220 0 min 0,000 mm 0,0 UV-I 0 W/m -1,8 C 3,1 C 7,9 km/h (2 Bft) 0,00 %
25.12.2014 20:00 2,9 C 68 % 1025,4 hPa 0,0 l/m 0,3 km/h (0 Bft) NO 50 0 min 0,000 mm 0,0 UV-I 0 W/m -2,4 C 2,9 C 4,0 km/h (1 Bft) 0,00 %
25.12.2014 21:00 3,0 C 62 % 1025,3 hPa 0,0 l/m 0,0 km/h (0 Bft) SO 140 0 min 0,000 mm 0,0 UV-I 0 W/m -3,6 C 3,0 C 0,0 km/h (0 Bft) 0,00 %
25.12.2014 22:00 2,9 C 66 % 1025,4 hPa 0,0 l/m 0,3 km/h (0 Bft) NW 310 0 min 0,000 mm 0,0 UV-I 0 W/m -2,8 C 2,9 C 4,0 km/h (1 Bft) 0,00 %
25.12.2014 23:00 3,0 C 63 % 1025,3 hPa 0,0 l/m 3,2 km/h (1 Bft) W-SW 240 0 min 0,000 mm 0,0 UV-I 0 W/m -3,3 C 3,0 C 7,9 km/h (2 Bft) 0,00 %
_ Min-Zeit 17:00 01:00 05:00 - 14:00 - - - - - - 21:00 17:00 14:00 00:00
Minimum _ 2,9 C 49 % 1019,1 hPa - 0,0 km/h (0 Bft) - - - - - - -3,6 C 2,9 C 0,0 km/h (0 Bft) 0,00 %
_ Max-Zeit 04:00 11:00 20:00 07:00 04:00 - - 00:00 00:00 09:00 12:00 06:00 05:00 04:00 00:00
Maximum _ 7,3 C 81 % 1025,4 hPa 0,3 l/m 9,0 km/h
W-NW (2 Bft)
- - 0 min 0,000 mm 1,0 UV-I 59 W/m 1,7 C 7,3 C 19,8 km/h
W-NW (3 Bft)
0,00 %
Durchschnitt _ 4,7 C 67 % 1022,3 hPa #0,6 l/m 2,5 km/h (1 Bft) SW - #0 min. #0,000 mm 1,0 UV-I 41 W/m -0,9 C 4,6 C 5,9 km/h (2 Bft) 0,00 %